This is the latest recevied weather packets stored in our database for station/object DB0WUN-13. If no packets are shown the sender has not sent any weather packets the latest 1 day(s).
| Time | Temp. | Humidity | Pressure | Rain* | Wind** | Luminosity | Snow |
|---|---|---|---|---|---|---|---|
| 1778067006 | 15.56° C | 71% | 1007.7 hPa | 0 mm | 1.34 m/s, 160° | 554 W/m² | - |
| 1778066944 | 15.56° C | 71% | 1007.8 hPa | 0 mm | 1.34 m/s, 182° | 487 W/m² | - |
| 1778066888 | 15.56° C | 72% | 1007.7 hPa | 0 mm | 1.79 m/s, 215° | 464 W/m² | - |
| 1778066825 | 15.56° C | 72% | 1007.7 hPa | 0 mm | 1.79 m/s, 215° | 401 W/m² | - |
| 1778066763 | 15.56° C | 71% | 1007.7 hPa | 0 mm | 1.79 m/s, 199° | 374 W/m² | - |
| 1778066713 | 15.56° C | 71% | 1007.8 hPa | 0 mm | 1.79 m/s, 214° | 353 W/m² | - |
| 1778066642 | 15.56° C | 71% | 1007.7 hPa | 0 mm | 1.79 m/s, 239° | 339 W/m² | - |
| 1778066594 | 15.56° C | 72% | 1007.7 hPa | 0 mm | 1.79 m/s, 239° | 338 W/m² | - |
| 1778066525 | 15.56° C | 72% | 1007.8 hPa | 0 mm | 1.79 m/s, 217° | 339 W/m² | - |
| 1778066468 | 15.56° C | 72% | 1007.7 hPa | 0 mm | 1.79 m/s, 260° | 350 W/m² | - |
| 1778066402 | 15.56° C | 72% | 1007.6 hPa | 0 mm | 1.79 m/s, 217° | 346 W/m² | - |
| 1778066341 | 15.56° C | 72% | 1007.7 hPa | 0 mm | 1.79 m/s, 217° | 350 W/m² | - |
| 1778066286 | 15.56° C | 71% | 1007.7 hPa | 0 mm | 1.79 m/s, 273° | 346 W/m² | - |
| 1778066222 | 15.56° C | 71% | 1007.7 hPa | 0 mm | 1.79 m/s, 265° | 343 W/m² | - |
| 1778066169 | 15.56° C | 71% | 1007.6 hPa | 0 mm | 1.34 m/s, 253° | 339 W/m² | - |
| 1778066095 | 15.56° C | 71% | 1007.7 hPa | 0 mm | 1.34 m/s, 242° | 339 W/m² | - |
| 1778066036 | 15.56° C | 71% | 1007.7 hPa | 0 mm | 1.79 m/s, 241° | 353 W/m² | - |
| 1778065983 | 15.56° C | 71% | 1007.7 hPa | 0 mm | 1.79 m/s, 215° | 378 W/m² | - |
| 1778065915 | 15.56° C | 71% | 1007.7 hPa | 0 mm | 1.34 m/s, 217° | 378 W/m² | - |
| 1778065854 | 15.56° C | 71% | 1007.6 hPa | 0 mm | 1.34 m/s, 252° | 403 W/m² | - |
| 1778065791 | 15.56° C | 71% | 1007.7 hPa | 0 mm | 1.34 m/s, 217° | 439 W/m² | - |
| 1778065730 | 15.56° C | 72% | 1007.7 hPa | 0 mm | 1.34 m/s, 194° | 499 W/m² | - |
| 1778065670 | 15.56° C | 71% | 1007.7 hPa | 0 mm | 1.34 m/s, 204° | 483 W/m² | - |
| 1778065606 | 15.56° C | 72% | 1007.7 hPa | 0 mm | 1.34 m/s, 232° | 478 W/m² | - |
| 1778065552 | 15.56° C | 70% | 1007.7 hPa | 0 mm | 1.34 m/s, 216° | 476 W/m² | - |
* Rain latest hour (hover to see other rain measurements)
** Current wind speed in m/s (hover to see current wind gust speed)